Regional Weather Roundup
Issued by NWS

Home | Current Version | Previous Version | Text Only | Print | Product List | Glossary On
Versions: 1 2 3 4 5 6 7 8 9 10 11 12 13 14 15 16 17 18 19 20 21 22 23 24 25 26 27 28 29 30 31 32 33 34 35 36 37 38 39 40 41 42 43 44 45 46 47 48 49 50
000
ASUS43 KMPX 252010
RWRMN
WEATHER ROUNDUP FOR MINNESOTA
NATIONAL WEATHER SERVICE TWIN CITIES/CHANHASSEN MN
300 PM CDT SAT APR 25 2015


NOTE: "FAIR" INDICATES FEW OR NO CLOUDS BELOW 12,000 FEET WITH NO
SIGNIFICANT WEATHER AND/OR OBSTRUCTIONS TO VISIBILITY. N/A MEANS
CURRENT SKY AND/OR WEATHER CONDITIONS ARE NOT AVAILABLE.

MNZ060>063-068>070-252100-
   Twin Cities Metro

CITY           SKY/WX    TMP DP  RH WIND       PRES   REMARKS
TWIN CITIES    MOSUNNY   59  34  39 E17       29.83S
ST PAUL        SUNNY     60  31  33 E16       29.85S
CRYSTAL        SUNNY     60  32  34 E13       29.84S
BLAINE         MOSUNNY   61  28  29 NE12G23   29.85R
LAKEVILLE      PTSUNNY   55  37  50 NE13G20   29.83S
EDEN PRAIRIE   MOSUNNY   59  36  42 E13G20    29.82S
SOUTH ST PAUL  SUNNY     59  32  35 E14       29.84S
LAKE ELMO      FAIR      59  28  31 E14G20    29.85S
$$
MNZ001>005-007-008-013>017-022>024-027-028-252100-
   Northwest Minnesota

CITY           SKY/WX    TMP DP  RH WIND       PRES   REMARKS
BEMIDJI        SUNNY     55  31  39 E13G20    29.91F
HALLOCK        MOSUNNY   64  30  27 E13G22    29.88S
ROSEAU         SUNNY     61  30  31 NE18      29.92S
WARROAD        SUNNY     54  30  40 NE16      29.95S
THIEF RVR FALL MOSUNNY   61  34  36 SE12G22   29.89F
CROOKSTON      SUNNY     61  36  39 SE9G16    29.88S
FOSSTON        SUNNY     63  34  34 SE9G18    29.90R
DETROIT LAKES  SUNNY     57  36  44 SE14      29.88S
MOORHEAD       PTSUNNY   55  37  50 SE10G20   29.89S
PARK RAPIDS    SUNNY     59  28  30 E15G21    29.89S
MAHNOMEN       FAIR      58  33  39 E8G17     29.87S
$$
MNZ006-009>011-018-025>026-252100-
   North Central Minnesota

CITY           SKY/WX    TMP DP  RH WIND       PRES   REMARKS
BAUDETTE       SUNNY     59  28  30 SE13G22   29.94F
FLAG ISLAND    SUNNY     54  27  35 SE9       29.95S
INTL FALLS     SUNNY     55  26  32 NE13      29.97S
WASKISH        SUNNY     63  34  34 CALM      29.92S
BIG FORK       SUNNY     61  27  27 E5        29.94S
LONGVILLE      SUNNY     55  27  33 E9G20     29.92R
GRAND RAPIDS   SUNNY     52  27  37 E12       29.94F
CRANE LAKE     CLOUDY    52  19  28 NE7       29.99S
ORR            SUNNY     57  19  23 E7        29.92S
COOK           SUNNY     55  25  30 NE9G20    29.95F
WALKER         FAIR      54  29  39 SE9       29.91F
$$
MNZ012-019>021-037-252100-
   Northeast Minnesota

CITY           SKY/WX    TMP DP  RH WIND       PRES   REMARKS
DULUTH         MOSUNNY   49  24  37 E18       29.96S
ELY            PTSUNNY   52  14  22 NE8       29.95F
HIBBING        FAIR      56  23  27 E8        29.94F
EVELETH        SUNNY     57  23  26 S5G16     29.94F
DULUTH HARBOR  SUNNY     39  30  70 NE20G25   30.00S
TWO HARBORS    SUNNY     50  25  37 NE12G22   29.97S
SILVER BAY     SUNNY     45  16  31 NE15G21   29.99S
GRAND MARAIS     N/A     40  29  64 E7        30.04S
G MARAIS ARPRT SUNNY     45  16  31 SE9G17    29.99F
$$
MNZ029>031-032-039>041-046>048-054>057-064-252100-
   West Central Minnesota

CITY           SKY/WX    TMP DP  RH WIND       PRES   REMARKS
FERGUS FALLS   PTSUNNY   55  36  47 SE12      29.88S
WHEATON        MOSUNNY   48  43  81 E10       29.89S
MORRIS         PTSUNNY   55  43  62 E13       29.85S
ALEXANDRIA     CLOUDY    54  39  57 E16       29.88R
ELBOW LAKE     CLOUDY    53  40  61 SE10      29.87S
WADENA         SUNNY     55  36  47 E12G17    29.88R
GLENWOOD       MOSUNNY   54  43  66 E13G18    29.87S
APPLETON       SUNNY     57  43  58 E13       29.84F
BENSON         MOSUNNY   57  39  51 SE10G17   29.85S
ORTONVILLE     PTSUNNY   50  39  66 E10       29.85F
MADISON        PTSUNNY   55  43  62 E10G18    29.84S
WILLMAR        FAIR      55  43  62 E10G21    29.86R
$$
MNZ033>034-036-042>043-049>051-058-059-252100-
   Central Minnesota

CITY           SKY/WX    TMP DP  RH WIND       PRES   REMARKS
ST CLOUD       MOSUNNY   57  35  43 N10       29.87R
SAUK CENTRE    MOCLDY    54  40  57 NE13G20   29.87S
PAYNESVILLE    SUNNY     53  38  55 N13       29.86R
AITKIN         CLOUDY    55  25  30 E7G18     29.90S
PINE RIVER     SUNNY     54  30  40 E16       29.94F
BRAINERD       SUNNY     54  32  43 E6G16     29.91S
STAPLES        SUNNY     55  34  44 NE9G16    29.89S
LONG PRAIRIE   PTSUNNY   54  39  58 E9G18     29.88S
LITTLE FALLS   MOSUNNY   54  34  47 E9        29.88S
LITCHFIELD     SUNNY     57  39  51 E13G18    29.85R
BUFFALO        SUNNY     58  33  38 E15       29.86S
MAPLE LAKE     SUNNY     59  37  43 E16       29.86S
$$
MNZ037-044-045-052-053-252100-
   East Central Minnesota

CITY           SKY/WX    TMP DP  RH WIND       PRES   REMARKS
PRINCETON      SUNNY     63  30  29 E10G17    29.87R
MORA           MOSUNNY   54  30  40 NE7       29.90R
CAMBRIDGE      PTSUNNY   61  37  41 E5        29.85S
RUSH CITY      MOSUNNY   59  26  28 NE5G18    29.87S
MOOSE LAKE     CLOUDY    48  28  46 NE9G22    29.92R
HINCKLEY       CLOUDY    55  34  44 N13G18    29.88F
CLOQUET        SUNNY     48  25  40 E13G22    29.95S
MCGREGOR       CLOUDY    54  27  35 NE14G22   29.93R
$$
MNZ071>073-080-081-089-090-097-098-252100-
   Southwest Minnesota

CITY           SKY/WX    TMP DP  RH WIND       PRES   REMARKS
MONTEVIDEO     MOSUNNY   57  43  58 SE13G21   29.85R
GRANITE FALLS  MOSUNNY   58  40  49 E10G21    29.84S
CANBY          PTSUNNY   55  43  63 E10       29.84S
MARSHALL       CLOUDY    57  37  47 E13G21    29.80S
REDWOOD FALLS  CLOUDY    58  39  49 E12       29.81F
OLIVIA         CLOUDY    54  36  50 E10G17    29.83R
PIPESTONE      PTSUNNY   57  41  54 E15G21    29.78R
WINDOM         PTSUNNY   55  39  54 E10       29.80R
WORTHINGTON    PTSUNNY   54  39  58 E17       29.79S
JACKSON        PTSUNNY   54  37  54 E17G23    29.80S
TRACY          PTSUNNY   58  41  52 E15G22    29.81S
SLAYTON        PTSUNNY   58  39  49 E16G22    29.80S
$$
MNZ065>067-074>077-082>085-091>093-252100-
   South Central Minnesota

CITY           SKY/WX    TMP DP  RH WIND       PRES   REMARKS
MANKATO        CLOUDY    54  37  54 E14G20    29.83R
NEW ULM        CLOUDY    54  39  58 E10G16    29.83R
ST JAMES       PTSUNNY   57  39  51 E13G20    29.82R
FAIRMONT       CLOUDY    54  37  54 E16G22    29.79S
GLENCOE        MOSUNNY   59  40  49 E14       29.83R
FARIBAULT      CLOUDY    54  39  58 NE10      29.83R
OWATONNA       PTSUNNY   55  37  50 E13       29.82S
WASECA         CLOUDY    52  41  66 E16G22    29.83R
ALBERT LEA     CLOUDY    52  41  66 NE15      29.80R
$$
MNZ078>079-086>088-094>096-252100-
   Southeast Minnesota

CITY           SKY/WX    TMP DP  RH WIND       PRES   REMARKS
ROCHESTER      CLOUDY    53  39  59 E20       29.82R
RED WING       CLOUDY    57  30  35 E12G18    29.82S
STANTON        CLOUDY    56  37  49 E7        29.82R
DODGE CENTER   CLOUDY    52  43  71 E16       29.81S
WINONA         CLOUDY    54  34  47 E10G18    29.83R
AUSTIN         CLOUDY    52  41  66 E14       29.80R
PRESTON        CLOUDY    49  36  61 E13G20    29.81R
$$
ABBREVIATIONS USED IN REMARKS
   TC - TEMPERATURES IN CELSIUS
  WCI - WIND CHILL INDEX
   HX - HEAT INDEX
  VSB - VISIBILITY
$$



USA.gov is the U.S. government's official web portal to all federal, state and local government web resources and services.